• In Belarus
  • List of Countries
  • For 7 days
  • Water Temperature
  • Satellite Maps
  • Weather Map
  • Weather Widgets
  • user-avatar
    Login

    Hourly Weather Kipungo

    Today, 20 January, Sunday

    Time Temperature Precipitation Wind Pressure Humidity
    00:00 +19°C° 0.5 mm 2 mps 654 mmHg 91%
    01:00 +20°C° 0 mm 1 mps 654 mmHg 94%
    02:00 +20°C° 1 mm 1 mps 654 mmHg 94%
    03:00 +18°C° 1 mm 0 mps 654 mmHg 95%
    04:00 +18°C° 1 mm 0 mps 654 mmHg 96%
    05:00 +18°C° 0.4 mm 0 mps 654 mmHg 95%
    06:00 +18°C° 0.4 mm 0 mps 654 mmHg 94%
    07:00 +19°C° 0 mm 0 mps 655 mmHg 91%
    08:00 +22°C° 0 mm 1 mps 655 mmHg 84%
    09:00 +24°C° 0 mm 1 mps 655 mmHg 76%
    10:00 +26°C° 0 mm 1 mps 655 mmHg 69%
    11:00 +28°C° 0 mm 1 mps 655 mmHg 60%
    12:00 +30°C° 0 mm 1 mps 656 mmHg 52%
    13:00 +32°C° 0 mm 1 mps 656 mmHg 43%
    14:00 +31°C° 0.3 mm 1 mps 655 mmHg 46%
    15:00 +30°C° 0.3 mm 1 mps 655 mmHg 49%
    16:00 +29°C° 0.3 mm 1 mps 654 mmHg 53%
    17:00 +27°C° 1.1 mm 1 mps 654 mmHg 61%
    18:00 +25°C° 1.1 mm 1 mps 654 mmHg 70%
    19:00 +21°C° 1.1 mm 0 mps 653 mmHg 79%
    20:00 +23°C° 0.4 mm 1 mps 654 mmHg 81%
    21:00 +23°C° 0.4 mm 1 mps 654 mmHg 83%
    22:00 +21°C° 0.4 mm 2 mps 655 mmHg 84%
    23:00 +21°C° 0.4 mm 2 mps 655 mmHg 86%

    Tomorrow, 21 January, Monday

    Time Temperature Precipitation Wind Pressure Humidity
    00:00 +20°C° 0.4 mm 2 mps 655 mmHg 87%
    01:00 +20°C° 0.4 mm 2 mps 655 mmHg 89%
    02:00 +20°C° 0.1 mm 2 mps 654 mmHg 90%
    03:00 +21°C° 0.1 mm 1 mps 654 mmHg 92%
    04:00 +20°C° 0.1 mm 1 mps 654 mmHg 93%
    05:00 +21°C° 0 mm 1 mps 654 mmHg 92%
    06:00 +21°C° 0 mm 1 mps 654 mmHg 90%
    07:00 +21°C° 0 mm 1 mps 655 mmHg 89%
    08:00 +23°C° 0.1 mm 1 mps 655 mmHg 79%
    09:00 +25°C° 0.1 mm 2 mps 656 mmHg 69%
    10:00 +27°C° 0.1 mm 2 mps 656 mmHg 60%
    11:00 +27°C° 0.7 mm 2 mps 656 mmHg 60%
    12:00 +27°C° 0.7 mm 1 mps 656 mmHg 61%
    13:00 +28°C° 0.7 mm 1 mps 655 mmHg 61%
    14:00 +27°C° 1.6 mm 1 mps 654 mmHg 67%
    15:00 +26°C° 1.6 mm 1 mps 654 mmHg 73%
    16:00 +25°C° 1.6 mm 1 mps 653 mmHg 79%
    17:00 +24°C° 1.3 mm 1 mps 653 mmHg 82%
    18:00 +23°C° 1.3 mm 1 mps 653 mmHg 85%
    19:00 +22°C° 1.3 mm 1 mps 653 mmHg 88%
    20:00 +22°C° 0.2 mm 1 mps 653 mmHg 89%
    21:00 +21°C° 0.2 mm 1 mps 654 mmHg 90%
    22:00 +21°C° 0.2 mm 1 mps 654 mmHg 92%
    23:00 +21°C° 0.2 mm 1 mps 654 mmHg 92%

    Day after tomorrow, 22 January, Tuesday

    Time Temperature Precipitation Wind Pressure Humidity
    00:00 +21°C° 0.2 mm 1 mps 654 mmHg 93%
    01:00 +20°C° 0.2 mm 1 mps 653 mmHg 93%
    02:00 +20°C° 0.3 mm 1 mps 653 mmHg 93%
    03:00 +20°C° 0.3 mm 1 mps 653 mmHg 93%
    04:00 +20°C° 0.3 mm 1 mps 653 mmHg 93%
    05:00 +21°C° 0.1 mm 1 mps 653 mmHg 91%
    06:00 +21°C° 0.1 mm 1 mps 654 mmHg 90%
    07:00 +21°C° 0.1 mm 1 mps 654 mmHg 88%
    08:00 +23°C° 0 mm 2 mps 655 mmHg 77%
    09:00 +25°C° 0 mm 2 mps 655 mmHg 67%
    10:00 +27°C° 0 mm 2 mps 656 mmHg 56%
    11:00 +28°C° 0.1 mm 2 mps 656 mmHg 52%
    12:00 +30°C° 0.1 mm 2 mps 655 mmHg 49%
    13:00 +31°C° 0.1 mm 1 mps 655 mmHg 45%
    14:00 +30°C° 0.1 mm 1 mps 654 mmHg 47%
    15:00 +30°C° 0.1 mm 1 mps 654 mmHg 48%
    16:00 +29°C° 0.1 mm 1 mps 653 mmHg 50%
    17:00 +28°C° 0.2 mm 1 mps 653 mmHg 56%
    18:00 +26°C° 0.2 mm 2 mps 653 mmHg 62%
    19:00 +25°C° 0.2 mm 2 mps 653 mmHg 68%
    20:00 +24°C° 0.1 mm 2 mps 653 mmHg 72%
    21:00 +23°C° 0.1 mm 2 mps 654 mmHg 76%
    22:00 +21°C° 0.1 mm 2 mps 654 mmHg 80%
    23:00 +20°C° 0 mm 2 mps 654 mmHg 81%

    23 January, Wednesday

    Time Temperature Precipitation Wind Pressure Humidity
    00:00 +20°C° 0 mm 3 mps 653 mmHg 82%
    01:00 +19°C° 0 mm 3 mps 653 mmHg 83%
    02:00 +19°C° 0 mm 2 mps 653 mmHg 85%
    03:00 +18°C° 0 mm 2 mps 653 mmHg 86%
    04:00 +19°C° 0 mm 1 mps 652 mmHg 88%
    05:00 +19°C° 0 mm 1 mps 653 mmHg 86%
    06:00 +20°C° 0 mm 1 mps 653 mmHg 83%
    07:00 +18°C° 0 mm 0 mps 654 mmHg 81%
    08:00 +23°C° 0 mm 1 mps 654 mmHg 69%
    09:00 +26°C° 0 mm 1 mps 655 mmHg 57%
    10:00 +29°C° 0 mm 1 mps 656 mmHg 45%
    11:00 +31°C° 0 mm 1 mps 655 mmHg 40%
    12:00 +32°C° 0 mm 2 mps 655 mmHg 36%
    13:00 +35°C° 0 mm 2 mps 654 mmHg 32%
    14:00 +33°C° 0 mm 1 mps 654 mmHg 35%
    15:00 +31°C° 0 mm 1 mps 653 mmHg 39%
    16:00 +30°C° 0 mm 1 mps 652 mmHg 42%
    17:00 +29°C° 0 mm 1 mps 652 mmHg 47%
    18:00 +27°C° 0 mm 1 mps 652 mmHg 51%
    19:00 +26°C° 0 mm 2 mps 652 mmHg 55%
    20:00 +25°C° 0 mm 2 mps 653 mmHg 58%
    21:00 +23°C° 0 mm 2 mps 653 mmHg 62%
    22:00 +21°C° 0 mm 2 mps 653 mmHg 65%
    23:00 +21°C° 0 mm 2 mps 653 mmHg 68%

    24 January, Thursday

    Time Temperature Precipitation Wind Pressure Humidity
    00:00 +20°C° 0 mm 2 mps 653 mmHg 71%
    01:00 +19°C° 0 mm 2 mps 652 mmHg 74%
    02:00 +19°C° 0 mm 2 mps 652 mmHg 75%
    03:00 +19°C° 0 mm 1 mps 651 mmHg 77%
    04:00 +19°C° 0 mm 1 mps 651 mmHg 78%
    05:00 +19°C° 0 mm 1 mps 652 mmHg 76%
    06:00 +20°C° 0 mm 1 mps 652 mmHg 73%
    07:00 +21°C° 0 mm 1 mps 653 mmHg 71%
    08:00 +23°C° 0 mm 0 mps 654 mmHg 60%
    09:00 +27°C° 0 mm 0 mps 655 mmHg 49%
    10:00 +31°C° 0 mm 0 mps 656 mmHg 37%
    11:00 +33°C° 0 mm 1 mps 655 mmHg 33%
    12:00 +35°C° 0 mm 2 mps 654 mmHg 28%
    13:00 +36°C° 0 mm 3 mps 654 mmHg 23%
    14:00 +35°C° 0 mm 3 mps 653 mmHg 25%
    15:00 +35°C° 0 mm 3 mps 653 mmHg 28%
    16:00 +34°C° 0 mm 3 mps 652 mmHg 30%
    17:00 +31°C° 0 mm 2 mps 652 mmHg 36%
    18:00 +29°C° 0 mm 2 mps 652 mmHg 41%
    19:00 +27°C° 0 mm 2 mps 652 mmHg 47%
    20:00 +26°C° 0 mm 2 mps 652 mmHg 50%
    21:00 +25°C° 0 mm 2 mps 653 mmHg 53%
    22:00 +24°C° 0 mm 2 mps 653 mmHg 56%
    23:00 +24°C° 0 mm 2 mps 653 mmHg 59%

    25 January, Friday

    Time Temperature Precipitation Wind Pressure Humidity
    00:00 +24°C° 0 mm 1 mps 653 mmHg 62%
    01:00 +24°C° 0 mm 1 mps 653 mmHg 65%
    02:00 +23°C° 0.1 mm 1 mps 653 mmHg 70%
    03:00 +22°C° 0.1 mm 1 mps 652 mmHg 74%
    04:00 +21°C° 0.1 mm 2 mps 652 mmHg 79%
    05:00 +21°C° 0 mm 2 mps 653 mmHg 78%
    06:00 +22°C° 0 mm 1 mps 653 mmHg 77%
    07:00 +22°C° 0 mm 1 mps 653 mmHg 76%
    08:00 +26°C° 0 mm 1 mps 654 mmHg 64%
    09:00 +29°C° 0 mm 2 mps 655 mmHg 52%
    10:00 +32°C° 0 mm 2 mps 656 mmHg 40%
    11:00 +34°C° 0 mm 2 mps 655 mmHg 35%
    12:00 +35°C° 0 mm 3 mps 655 mmHg 30%
    13:00 +37°C° 0 mm 4 mps 655 mmHg 24%
    14:00 +36°C° 0 mm 3 mps 654 mmHg 27%
    15:00 +35°C° 0 mm 2 mps 653 mmHg 30%
    16:00 +33°C° 0 mm 1 mps 652 mmHg 33%
    17:00 +31°C° 0 mm 1 mps 653 mmHg 36%
    18:00 +29°C° 0 mm 1 mps 653 mmHg 39%
    19:00 +28°C° 0 mm 1 mps 653 mmHg 42%
    20:00 +27°C° 0 mm 1 mps 653 mmHg 47%
    21:00 +26°C° 0 mm 1 mps 654 mmHg 51%
    22:00 +26°C° 0 mm 1 mps 654 mmHg 56%
    23:00 +25°C° 0.1 mm 1 mps 654 mmHg 60%
    Show more